Meteopurmerend
purmerend
Purmerend - Baaienwijk



My webcam  My webcam


Onweer radar Meer informatie blitzortung!


Regen radar Meer informatie rain snow radar


Bezoek onze andere website:

CandyAppleRed WebdesignWebdesign Purmerend Candy Apple Red

MeteopurmerendBlog

Template documentation
and downloads



Het weer levert geen direct gevaar op.    Er zijn geen waarschuwingen afgegeven.

15 daagse weersverwachting Espoo (FI)

  • Overzicht
  • Per uur
  • 15 dagen
  • Extra
  • Vergelijk
  • Kaarten
  • Dagkaart
  • Meer »
  • Info
  • Statistieken
  • Directe link
    Temp 6h Neerslag Wind  
 04:20     22:19    Daglengte: 17:59 Vandaag
09:00
11°
9.7 mm
2
15:00
12°
18.6 mm
2
21:00
10°
4.2 mm
1
 04:18     22:21    Daglengte: 18:03 Morgen
03:00
4.3 mm
1
09:00
10°
 
2
15:00
13°
 
3
21:00
11°
 
2
 04:17     22:23    Daglengte: 18:06 Zaterdag 28 Mei
03:00
 
2
09:00
10°
7.7 mm
1
15:00
13°
46.4 mm
3
21:00
11°
8.1 mm
2
 04:15     22:25    Daglengte: 18:10 Zondag 29 Mei
03:00
 
2
Locatie info
Region: Uusimaa
Latitude: 60.2068°N
Longitude: 24.6558°E
16 masl
Postcode: 02770
Temp/Neerslag /Baro Onweer/Dauwpunt
    Temp Baro 1h Neerslag Dauwpunt Wind UV Bewolking  
 04:20     22:19    Daglengte: 17:59 Vandaag
08:00
10°
1004.0 hPa 2.8 mm
82%
9.7°
2
Windvlaag: 2.7 m/s
84%
09:00
11°
1003.7 hPa 3.2 mm
82%
10.1°
2
Windvlaag: 2.4 m/s
86%
10:00
11°
1003.2 hPa 3.5 mm
82%
10.2°
1
Windvlaag: 2 m/s
86%
11:00
12°
1002.8 hPa
82%
10.4°
1
Windvlaag: 2.8 m/s
86%
12:00
12°
1002.6 hPa 3.5 mm
82%
9.5°
2
Windvlaag: 3.7 m/s
86%
13:00
13°
1002.2 hPa 3.7 mm
81%
9.2°
2
Windvlaag: 4.2 m/s
86%
14:00
13°
1001.9 hPa 3.8 mm
81%
8.9°
2
Windvlaag: 4.2 m/s
86%
15:00
12°
1001.3 hPa 4.0 mm
82%
10.2°
2
Windvlaag: 3.8 m/s
86%
16:00
12°
1000.8 hPa
82%
10.6°
2
Windvlaag: 3.4 m/s
84%
17:00
12°
1000.5 hPa 4.2 mm
80%
9.8°
2
Windvlaag: 3.8 m/s
86%
18:00
11°
1000.0 hPa
79%
8.7°
2
Windvlaag: 4.3 m/s
86%
19:00
11°
999.6 hPa
79%
8.4°
2
Windvlaag: 4.1 m/s
59%
20:00
10°
999.3 hPa
76%
8.2°
1
Windvlaag: 4.1 m/s
86%
21:00
10°
Voelt als: 9.8°
999.1 hPa
68%
8.7°
1
Windvlaag: 3.2 m/s
85%
22:00
998.7 hPa 4.3 mm
66%
8.7°
1
Windvlaag: 3.6 m/s
84%
23:00
Voelt als: 8.9°
998.6 hPa
61%
8.5°
1
Windvlaag: 2.4 m/s
63%
 04:18     22:21    Daglengte: 18:03 Morgen
00:00
Voelt als: 8.6°
998.2 hPa
20%
8.4°
1
Windvlaag: 1.4 m/s
64%
01:00
Voelt als: 8.1°
998.0 hPa
23%
8.0°
1
Windvlaag: 1.6 m/s
59%
02:00
Voelt als: 8.0°
997.7 hPa
22%
7.7°
1
Windvlaag: 2.2 m/s
47%
03:00
997.3 hPa
22%
7.6°
1
Windvlaag: 0.8 m/s
43%
04:00
996.8 hPa
22%
7.6°
1
Windvlaag: 0.8 m/s
62%
05:00
Voelt als: 8.0°
996.5 hPa
24%
7.9°
1
Windvlaag: 1.2 m/s
66%
06:00
Voelt als: 8.1°
996.2 hPa
26%
8.3°
1
Windvlaag: 1.2 m/s
63%
07:00
Voelt als: 8.7°
995.9 hPa
30%
8.4°
1
Windvlaag: 1.6 m/s
77%
08:00
10°
Voelt als: 9.3°
995.7 hPa
75%
8.6°
1
Windvlaag: 1.7 m/s
85%
09:00
10°
995.4 hPa
78%
8.8°
2
Windvlaag: 2.1 m/s
81%
10:00
11°
995.2 hPa
36%
9.1°
2
Windvlaag: 2.9 m/s
78%
11:00
12°
994.9 hPa
29%
8.7°
2
Windvlaag: 3.7 m/s
81%
12:00
13°
994.6 hPa
26%
5.4°
2
Windvlaag: 4.8 m/s
66%
13:00
13°
994.3 hPa
21%
4.1°
2
Windvlaag: 5.3 m/s
43%
14:00
13°
994.0 hPa
21%
4.8°
2
Windvlaag: 5.2 m/s
45%
15:00
13°
993.9 hPa
17%
5.0°
3
Windvlaag: 4.7 m/s
60%
16:00
13°
993.9 hPa
17%
5.4°
3
Windvlaag: 4.2 m/s
25%
17:00
13°
993.7 hPa
58%
6.1°
3
Windvlaag: 4.9 m/s
34%
18:00
12°
993.7 hPa
67%
6.4°
3
Windvlaag: 5.3 m/s
35%
19:00
12°
993.5 hPa
80%
7.2°
3
Windvlaag: 4.7 m/s
27%
20:00
11°
993.5 hPa
80%
8.5°
3
Windvlaag: 4.8 m/s
33%
21:00
11°
993.5 hPa
82%
8.3°
2
Windvlaag: 4.5 m/s
53%
22:00
10°
Voelt als: 8.4°
993.6 hPa
82%
7.6°
3
Windvlaag: 4.5 m/s
53%
23:00
Voelt als: 7.3°
993.7 hPa
82%
7.4°
3
Windvlaag: 3.8 m/s
44%
 04:17     22:23    Daglengte: 18:06 Zaterdag 28 Mei
00:00
Voelt als: 6.2°
992.7 hPa
100%
7.1°
2
Windvlaag: 3.1 m/s
58%
01:00
Voelt als: 6.4°
992.8 hPa
94%
7.3°
2
Windvlaag: 1.9 m/s
56%
02:00
Voelt als: 6.4°
992.7 hPa
48%
7.2°
2
Windvlaag: 1.2 m/s
56%
03:00
Voelt als: 6.3°
992.7 hPa
43%
7.0°
2
Windvlaag: 0.1 m/s
64%
04:00
Voelt als: 6.7°
992.7 hPa
39%
6.8°
1
Windvlaag: -0.4 m/s
81%
05:00
Voelt als: 6.7°
992.9 hPa
27%
6.8°
1
Windvlaag: -0.8 m/s
91%
06:00
Voelt als: 7.1°
993.1 hPa
22%
7.1°
1
Windvlaag: -1 m/s
91%
07:00
Voelt als: 7.7°
993.2 hPa
32%
7.5°
1
Windvlaag: -0.8 m/s
93%
08:00
Voelt als: 8.4°
993.5 hPa
32%
7.9°
2
Windvlaag: -0.2 m/s
93%
09:00
10°
Voelt als: 9.4°
993.7 hPa 7.7 mm
100%
8.5°
1
Windvlaag: 0.8 m/s
99%
10:00
11°
994.1 hPa 7.7 mm
96%
8.6°
1
Windvlaag: 1.3 m/s
100%
11:00
11°
994.5 hPa 7.8 mm
97%
9.0°
2
Windvlaag: 3.6 m/s
100%
12:00
12°
994.9 hPa 7.6 mm
97%
9.1°
2
Windvlaag: 4.8 m/s
98%
13:00
13°
995.3 hPa 7.7 mm
98%
8.7°
3
Windvlaag: 5.5 m/s
85%
14:00
13°
995.7 hPa 7.8 mm
100%
8.6°
3
Windvlaag: 5.9 m/s
68%
15:00
13°
995.9 hPa 7.7 mm
98%
9.6°
3
Windvlaag: 6.3 m/s
70%
16:00
14°
996.1 hPa
97%
8.4°
3
Windvlaag: 5.9 m/s
68%
17:00
13°
996.4 hPa
97%
10.1°
4
Windvlaag: 6.8 m/s
72%
18:00
13°
996.7 hPa 8.1 mm
99%
10.4°
3
Windvlaag: 6.7 m/s
57%
19:00
12°
996.9 hPa
96%
10.9°
3
Windvlaag: 6.2 m/s
60%
20:00
12°
997.2 hPa
93%
10.9°
2
Windvlaag: 4.5 m/s
57%
21:00
11°
997.4 hPa
30%
10.5°
2
Windvlaag: 3.7 m/s
55%
22:00
10°
997.6 hPa
22%
9.5°
1
Windvlaag: 1.8 m/s
68%
23:00
Voelt als: 8.9°
997.6 hPa
24%
8.8°
1
Windvlaag: 0.6 m/s
68%
 04:15     22:25    Daglengte: 18:10 Zondag 29 Mei
00:00
997.7 hPa
31%
8.4°
1
Windvlaag: 0.4 m/s
70%
01:00
10°
Voelt als: 9.1°
997.2 hPa
22%
9.2°
2
Windvlaag: 6.5 m/s
34%
02:00
10°
Voelt als: 8.5°
997.4 hPa
21%
8.7°
2
Windvlaag: 6.7 m/s
20%
03:00
Voelt als: 8.2°
997.4 hPa
21%
8.7°
2
Windvlaag: 5.9 m/s
35%
04:00
Voelt als: 6.8°
992.3 hPa 31.8 mm
100%
7.9°
3
Windvlaag: 5.5 m/s
99%
05:00
Voelt als: 6.4°
992.6 hPa 31.9 mm
100%
7.6°
3
Windvlaag: 5.5 m/s
100%
06:00
Voelt als: 6.4°
992.8 hPa 32.0 mm
100%
7.1°
3
Windvlaag: 5.9 m/s
100%
07:00
Voelt als: 6.9°
993.0 hPa 32.0 mm
100%
7.1°
3
Windvlaag: 5.4 m/s
100%
Temp/Neerslag /Baro Onweer/Dauwpunt
    Temp Baro Neerslag Dauwpunt Wind Bewolking  
 04:20     22:19    Daglengte: 17:59 Vandaag
09:00
11°
1003.7 hPa 9.7 mm 10.1°
2
86%
12:00
12°
1002.6 hPa 7.0 mm 9.5°
2
86%
15:00
12°
1001.3 hPa 11.5 mm 10.2°
2
86%
18:00
11°
1000.0 hPa 4.2 mm 8.7°
2
86%
21:00
10°
Voelt als: 9.8°
999.1 hPa   8.7°
1
85%
 04:18     22:21    Daglengte: 18:03 Morgen
00:00
Voelt als: 8.6°
998.2 hPa 4.3 mm 8.4°
1
64%
03:00
997.3 hPa   7.6°
1
43%
06:00
Voelt als: 8.1°
996.2 hPa   8.3°
1
63%
09:00
10°
995.4 hPa   8.8°
2
81%
12:00
13°
994.6 hPa   5.4°
2
66%
15:00
13°
993.9 hPa   5.0°
3
60%
18:00
12°
993.7 hPa   6.4°
3
35%
21:00
11°
993.5 hPa   8.3°
2
53%
 04:17     22:23    Daglengte: 18:06 Zaterdag 28 Mei
00:00
Voelt als: 6.2°
992.7 hPa   7.1°
2
58%
03:00
Voelt als: 6.3°
992.7 hPa   7.0°
2
64%
06:00
Voelt als: 7.1°
993.1 hPa   7.1°
1
91%
09:00
10°
Voelt als: 9.4°
993.7 hPa 7.7 mm 8.5°
1
99%
12:00
12°
994.9 hPa 23.1 mm 9.1°
2
98%
15:00
13°
995.9 hPa 23.2 mm 9.6°
3
70%
18:00
13°
996.7 hPa 8.1 mm 10.4°
3
57%
21:00
11°
997.4 hPa   10.5°
2
55%
 04:15     22:25    Daglengte: 18:10 Zondag 29 Mei
00:00
997.7 hPa   8.4°
1
70%
03:00
Voelt als: 8.2°
997.4 hPa   8.7°
2
35%
06:00
Voelt als: 6.4°
992.8 hPa 95.7 mm 7.1°
3
100%
09:00
10°
994.2 hPa 96.0 mm 7.1°
4
97%
12:00
Voelt als: 6.6°
1000.7 hPa 23.2 mm 7.4°
3
1%
15:00
10°
Voelt als: 8.7°
1002.8 hPa 23.4 mm 7.9°
2
1%
18:00
11°
1004.3 hPa 23.8 mm 8.2°
2
1%
21:00
Voelt als: 7.3°
1005.5 hPa 23.9 mm 7.2°
3
1%
 04:13     22:27    Daglengte: 18:14 Maandag 30 Mei
00:00
Voelt als: 5.2°
1007.3 hPa 23.9 mm 5.7°
3
1%
03:00
Voelt als: 3.7°
1008.4 hPa 23.9 mm 4.9°
3
1%
06:00
Voelt als: 4.1°
1009.5 hPa 23.9 mm 4.9°
2
1%
09:00
10°
Voelt als: 7.6°
1010.9 hPa 24.0 mm 5.9°
4
1%
12:00
12°
1012.5 hPa 24.0 mm 4.2°
5
1%
15:00
14°
1013.4 hPa 24.1 mm 1.6°
4
1%
18:00
13°
1014.8 hPa 24.1 mm 3.4°
4
1%
21:00
10°
1016.2 hPa 24.1 mm 5.9°
2
0%
 04:12     22:29    Daglengte: 18:17 Dinsdag 31 Mei
00:00
Voelt als: 6.4°
1017.5 hPa 24.1 mm 5.3°
1
0%
03:00
Voelt als: 6.8°
1018.4 hPa 24.1 mm 5.6°
2
0%
06:00
Voelt als: 7.5°
1018.8 hPa 24.1 mm 6.0°
2
1%
09:00
13°
1019.0 hPa 24.1 mm 6.0°
3
1%
12:00
14°
1018.7 hPa 24.1 mm 4.9°
4
1%
15:00
15°
1017.8 hPa 24.1 mm 2.8°
4
1%
18:00
16°
1015.5 hPa 24.1 mm 4.6°
2
1%
21:00
13°
1013.8 hPa 24.1 mm 6.1°
3
1%
 04:10     22:31    Daglengte: 18:21 Woensdag 01 Jun
00:00
11°
1011.9 hPa 24.1 mm 6.1°
3
1%
03:00
10°
Voelt als: 7.7°
1009.5 hPa 24.6 mm 7.5°
4
1%
06:00
Voelt als: 6.6°
1006.9 hPa 26.3 mm 8.2°
6
1%
09:00
Voelt als: 6.1°
1005.1 hPa 29.7 mm 8.2°
7
1%
12:00
10°
Voelt als: 6.5°
1004.7 hPa 32.9 mm 8.3°
7
1%
15:00
11°
1005.3 hPa 34.3 mm 8.2°
8
1%
18:00
11°
1006.7 hPa 34.9 mm 8.0°
8
1%
21:00
10°
1007.4 hPa 35.1 mm 6.5°
8
1%
 04:09     22:32    Daglengte: 18:23 Donderdag 02 Jun
00:00
10°
1007.7 hPa 35.1 mm 6.7°
7
1%
03:00
10°
Voelt als: 6.6°
1007.4 hPa 35.2 mm 7.7°
6
1%
06:00
11°
1007.4 hPa   6.9°
6
1%
09:00
12°
1008.2 hPa 70.5 mm 8.0°
6
1%
15:00
14°
1011.6 hPa 70.9 mm 7.5°
7
1%
21:00
11°
1012.5 hPa 71.7 mm 6.9°
5
1%
 04:08     22:34    Daglengte: 18:26 Vrijdag 03 Jun
03:00
10°
1013.2 hPa 71.8 mm 7.8°
5
1%
09:00
13°
1013.8 hPa 71.8 mm 7.5°
4
1%
15:00
13°
1015.1 hPa 72.9 mm 8.3°
4
1%
21:00
12°
1015.8 hPa 74.2 mm 9.1°
3
1%
 04:06     22:36    Daglengte: 18:30 Zaterdag 04 Jun
03:00
Voelt als: 6.3°
1018.1 hPa 74.3 mm 7.6°
3
0%
09:00
15°
1019.3 hPa 74.3 mm 8.9°
3
0%
15:00
17°
1019.9 hPa 74.3 mm 9.5°
3
0%
21:00
16°
1020.9 hPa 74.3 mm 11.6°
1
0%
 04:05     22:37    Daglengte: 18:32 Zondag 05 Jun
03:00
11°
1015.0 hPa 0.7 mm 8.2°
1
55%
09:00
13°
1014.9 hPa 0.8 mm 8.5°
1
56%
15:00
16°
1014.7 hPa 0.3 mm 8.1°
1
55%
21:00
14°
1014.1 hPa 0.3 mm 8.6°
0
49%
 04:04     22:39    Daglengte: 18:35 Maandag 06 Jun
03:00
11°
1014.3 hPa 0.3 mm 8.1°
1
49%
09:00
13°
1013.7 hPa 1.2 mm 9.2°
0
55%
15:00
16°
1013.3 hPa 1.1 mm 9.0°
2
53%
21:00
14°
1012.8 hPa 0.7 mm 9.1°
1
52%
 04:03     22:40    Daglengte: 18:37 Dinsdag 07 Jun
03:00
11°
1012.8 hPa 0.9 mm 7.9°
1
45%
09:00
14°
1012.3 hPa 0.6 mm 8.8°
1
53%
15:00
16°
1011.6 hPa 0.3 mm 8.9°
1
53%
21:00
14°
1011.1 hPa 0.6 mm 9.7°
0
62%
 04:02     22:41    Daglengte: 18:39 Woensdag 08 Jun
03:00
11°
1011.6 hPa 0.3 mm 8.6°
0
55%
09:00
14°
1011.5 hPa 0.1 mm 9.1°
1
54%
15:00
16°
1011.2 hPa 0.6 mm 9.6°
2
63%
21:00
14°
1011.0 hPa 0.6 mm 9.7°
1
68%
 04:01     22:43    Daglengte: 18:42 Donderdag 09 Jun
03:00
12°
1011.2 hPa 0.4 mm 8.8°
0
63%
09:00
14°
1011.0 hPa 0.8 mm 9.6°
1
61%
15:00
16°
1010.8 hPa 0.7 mm 9.8°
2
64%
21:00
14°
1010.5 hPa 2.0 mm 10.5°
1
61%
 04:00     22:44    Daglengte: 18:44 Vrijdag 10 Jun
03:00
12°
1010.9 hPa 0.6 mm 9.4°
1
59%
  CAPE Lifted Index Hail Supercell Tornado SRH 3km CL BTM PRES CL TOP PRES Swiss DWD icon SMHI TS
 04:20     22:19    Daglengte: 17:59 Vandaag
08:00 2 J/kg 6.5 K 0 % 0 % 0 % 0 m²/s² 0 0 6.71 61
09:00 0 J/kg 6.1 K 0 % 0 % 0 % 0 m²/s² 0 0 6.31 61
10:00 6 J/kg 5.7 K 0 % 0 % 0 % 0 m²/s² 0 0 5.94 61
11:00 45 J/kg 5.2 K 0 % 0 % 0 % 0 m²/s² 0 0 5.5 61
12:00 80 J/kg 4.7 K 0 % 0 % 0 % 0 m²/s² 0 0 5 61
13:00 82 J/kg 4.2 K 0 % 0 % 0 % 0 m²/s² 0 0 4.53 61
14:00 78 J/kg 3.8 K 0 % 0 % 0 % 0 m²/s² 0 0 4.22 80
15:00 65 J/kg 3.5 K 0 % 0 % 0 % 0 m²/s² 0 0 4.16 80
16:00 82 J/kg 3.2 K 0 % 0 % 0 % 0 m²/s² 0 0 3.77 80
17:00 31 J/kg 2.8 K 0 % 0 % 0 % 0 m²/s² 0 0 3.28 80
18:00 89 J/kg 2.2 K 0 % 0 % 0 % 0 m²/s² 0 0 2.59 80
19:00 123 J/kg 1.7 K 0 % 0 % 0 % 0 m²/s² 0 0 2.18 80
20:00 155 J/kg 0.6 K 0 % 0 % 0 % 0 m²/s² 0 0 1.56 80
21:00 130 J/kg 0.6 K 0 % 0 % 0 % 0 m²/s² 0 0 1.68 3
22:00 58 J/kg 1.1 K 0 % 0 % 0 % 0 m²/s² 0 0 2.48 80
23:00 63 J/kg 1.1 K 0 % 0 % 0 % 0 m²/s² 0 0 2.51 3
 04:18     22:21    Daglengte: 18:03 Morgen
00:00 29 J/kg 1.1 K 0 % 0 % 0 % 0 m²/s² 0 0 2.69 3
01:00 1 J/kg 1.1 K 0 % 0 % 0 % 0 m²/s² 0 0 2.78 3
02:00 0 J/kg 1.1 K 0 % 0 % 0 % 0 m²/s² 0 0 2.84 2
03:00 0 J/kg 0.9 K 0 % 0 % 0 % 0 m²/s² 0 0 3.21 3
04:00 0 J/kg 1.2 K 0 % 0 % 0 % 0 m²/s² 0 0 3.81 3
05:00 0 J/kg 1.4 K 0 % 0 % 0 % 0 m²/s² 0 0 4.01 3
06:00 0 J/kg 1.4 K 0 % 0 % 0 % 0 m²/s² 0 0 4.16 3
07:00 0 J/kg 1.6 K 0 % 0 % 0 % 0 m²/s² 0 0 4.42 3
08:00 0 J/kg 1.8 K 0 % 0 % 0 % 0 m²/s² 0 0 4.56 3
09:00 2 J/kg 1.7 K 0 % 0 % 0 % 0 m²/s² 0 0 4.31 61
10:00 10 J/kg 1.8 K 0 % 0 % 0 % 0 m²/s² 0 0 4.26 3
11:00 26 J/kg 1.4 K 0 % 0 % 0 % 0 m²/s² 0 0 3.71 3
12:00 45 J/kg 0.6 K 0 % 0 % 0 % 0 m²/s² 0 0 2.91 3
13:00 24 J/kg 0.4 K 0 % 0 % 0 % 0 m²/s² 0 0 2.59 3
14:00 15 J/kg 0.8 K 0 % 0 % 0 % 0 m²/s² 0 0 2.84 3
15:00 44 J/kg 0.4 K 0 % 0 % 0 % 0 m²/s² 0 0 2.14 3
16:00 25 J/kg 0.5 K 0 % 0 % 0 % 0 m²/s² 0 0 2.03 3
17:00 14 J/kg 0.7 K 0 % 0 % 0 % 0 m²/s² 0 0 2.62 3
18:00 8 J/kg 0.7 K 0 % 0 % 0 % 0 m²/s² 0 0 2.38 3
19:00 10 J/kg 0.4 K 0 % 0 % 0 % 0 m²/s² 0 0 1.81 3
20:00 27 J/kg -0.2 K 0 % 0 % 0 % 0 m²/s² 0 0 0.76 80
21:00 11 J/kg 0.0 K 0 % 0 % 0 % 0 m²/s² 0 0 0.69 3
22:00 0 J/kg 0.0 K 0 % 0 % 0 % 0 m²/s² 0 0 0.45 61
23:00 0 J/kg 0.2 K 0 % 0 % 0 % 0 m²/s² 0 0 0.86 3
 04:17     22:23    Daglengte: 18:06 Zaterdag 28 Mei
00:00 0 J/kg -0.1 K 0 % 0 % 0 % 0 m²/s² 0 0 0.86 3
01:00 0 J/kg -0.1 K 0 % 0 % 0 % 0 m²/s² 0 0 0.92 3
02:00 1 J/kg 0.1 K 0 % 0 % 0 % 0 m²/s² 0 0 0.97 3
03:00 1 J/kg 0.5 K 0 % 0 % 0 % 0 m²/s² 0 0 1.25 3
04:00 1 J/kg 0.7 K 0 % 0 % 0 % 0 m²/s² 0 0 1.27 2
05:00 1 J/kg 0.9 K 0 % 0 % 0 % 0 m²/s² 0 0 1.29 3
06:00 1 J/kg 1.4 K 0 % 0 % 0 % 0 m²/s² 0 0 1.73 3
07:00 1 J/kg 1.6 K 0 % 0 % 0 % 0 m²/s² 0 0 2.44 3
08:00 1 J/kg 1.4 K 0 % 0 % 0 % 0 m²/s² 0 0 2.09 3
09:00 6 J/kg 1.3 K 0 % 0 % 0 % 0 m²/s² 0 0 1.78 80
10:00 25 J/kg 1.2 K 0 % 0 % 0 % 0 m²/s² 0 0 1.77 80
11:00 42 J/kg 1.0 K 0 % 0 % 0 % 0 m²/s² 0 0 1.45 80
12:00 59 J/kg 1.1 K 0 % 0 % 0 % 0 m²/s² 0 0 1.49 3
13:00 100 J/kg 0.9 K 0 % 0 % 0 % 0 m²/s² 0 0 1.35 3
14:00 101 J/kg 0.9 K 0 % 0 % 0 % 0 m²/s² 0 0 1.44 80
15:00 49 J/kg 1.8 K 0 % 0 % 0 % 0 m²/s² 0 0 2.46 3
16:00 62 J/kg 1.7 K 0 % 0 % 0 % 0 m²/s² 0 0 2.15 2
17:00 20 J/kg 2.7 K 0 % 0 % 0 % 0 m²/s² 0 0 3.27 3
18:00 19 J/kg 3.1 K 0 % 0 % 0 % 0 m²/s² 0 0 3.46 80
19:00 7 J/kg 3.7 K 0 % 0 % 0 % 0 m²/s² 0 0 4.03 2
20:00 0 J/kg 3.9 K 0 % 0 % 0 % 0 m²/s² 0 0 4.26 2
21:00 0 J/kg 3.5 K 0 % 0 % 0 % 0 m²/s² 0 0 3.86 0
22:00 0 J/kg 2.6 K 0 % 0 % 0 % 0 m²/s² 0 0 2.93 2
23:00 0 J/kg 2.3 K 0 % 0 % 0 % 0 m²/s² 0 0 2.63 2
 04:15     22:25    Daglengte: 18:10 Zondag 29 Mei
00:00 3 J/kg 2.4 K 0 % 0 % 0 % 0 m²/s² 0 0 2.73 3
01:00 24 J/kg 2.6 K 0 % 0 % 0 % 0 m²/s² 0 0 2.93 2
02:00 20 J/kg 3.1 K 0 % 0 % 0 % 0 m²/s² 0 0 3.43 1
03:00 40 J/kg 2.8 K 0 % 0 % 0 % 0 m²/s² 0 0 3.16 1
04:00 18 J/kg 2.9 K 0 % 0 % 0 % 0 m²/s² 0 0 3.29
05:00 13 J/kg 2.8 K 0 % 0 % 0 % 0 m²/s² 0 0 3.25
06:00 1 J/kg 2.7 K 0 % 0 % 0 % 0 m²/s² 0 0 3.06
07:00 4 J/kg 2.6 K 0 % 0 % 0 % 0 m²/s² 0 0 2.96
Temp Baro Wind Neerslag
  EWN Forecast EWN WRFDA DWD ICON FMI HIRLAM MET Norway GFS
 04:20     22:19    Daglengte: 17:59 Vandaag
09:00 10.7° 1003.7 hPa 1.7 m/s 9.7 mm 10.6° 1001.6 hPa 2.1 m/s 36.7 mm 10.9° 1003.7 hPa 1.7 m/s 4.3 mm 11.1° 1003.9 hPa 1.1 m/s 0.0 mm 10.3° 1002.9 hPa 1.3 m/s
12:00 12.4° 1002.6 hPa 1.7 m/s 7.0 mm 11.8° 1000.6 hPa 1.6 m/s 48.3 mm 12.9° 1002.9 hPa 1.6 m/s 1.7 mm 13.1° 1002.5 hPa 1.7 m/s 0.0 mm 11.5° 1002.4 hPa 1.0 m/s
15:00 12.2° 1001.3 hPa 1.7 m/s 11.5 mm 12.1° 999.2 hPa 1.3 m/s 52.9 mm 13.3° 1001.5 hPa 1.8 m/s 1.7 mm 12.3° 1001.4 hPa 2.4 m/s 0.0 mm 11.7° 1000.9 hPa 1.0 m/s
18:00 11.0° 1000.0 hPa 2.1 m/s 4.2 mm 11.9° 997.7 hPa 0.9 m/s 57.5 mm 13.3° 1000.1 hPa 0.7 m/s 2.6 mm 10.6° 1000.7 hPa 2.4 m/s 0.0 mm 11.9° 998.9 hPa 0.9 m/s
21:00 9.8° 999.1 hPa 0.7 m/s 0.0 mm 12.1° 996.2 hPa 1.9 m/s 60.3 mm 12.1° 998.7 hPa 0.3 m/s 2.4 mm 9.5° 999.7 hPa 0.5 m/s 0.0 mm 10.5° 998.2 hPa 1.4 m/s
 04:18     22:21    Daglengte: 18:03 Morgen
00:00 8.9° 998.2 hPa 1.3 m/s 4.3 mm 8.0° 995.3 hPa 2.7 m/s 60.3 mm 9.4° 998.1 hPa 1.6 m/s 0.7 mm 9.3° 998.9 hPa 1.2 m/s 0.0 mm 8.8° 997.5 hPa 1.9 m/s
03:00 7.8° 997.3 hPa 1.0 m/s 0.0 mm 5.9° 994.1 hPa 2.9 m/s 60.3 mm 8.0° 997.1 hPa 0.8 m/s 0.0 mm 9.3° 998.1 hPa 1.3 m/s 0.0 mm 8.8° 996.4 hPa 2.9 m/s
06:00 8.6° 996.2 hPa 1.5 m/s 0.0 mm 6.4° 992.7 hPa 2.4 m/s 60.3 mm 9.2° 996.0 hPa 1.3 m/s 0.0 mm 9.4° 997.5 hPa 1.4 m/s 0.0 mm 8.6° 995.5 hPa 3.0 m/s
09:00 10.2° 995.4 hPa 1.6 m/s 0.0 mm 9.7° 991.7 hPa 3.1 m/s 60.3 mm 10.4° 995.3 hPa 1.3 m/s 0.1 mm 11.1° 996.9 hPa 2.1 m/s 0.0 mm 8.8° 994.3 hPa 2.2 m/s
12:00 13.0° 994.6 hPa 2.1 m/s 0.0 mm 12.0° 990.6 hPa 4.9 m/s 60.3 mm 12.8° 994.6 hPa 1.1 m/s 0.0 mm 15.5° 996.5 hPa 1.9 m/s 0.0 mm 9.3° 993.9 hPa 2.7 m/s
15:00 13.3° 993.9 hPa 2.7 m/s 0.0 mm 11.4° 990.2 hPa 3.7 m/s 60.7 mm 13.2° 993.5 hPa 2.1 m/s 0.0 mm 15.2° 996.2 hPa 2.5 m/s 0.0 mm 13.1° 992.6 hPa 3.8 m/s
18:00 12.5° 993.7 hPa 3.4 m/s 0.0 mm 11.9° 989.1 hPa 5.9 m/s 62.2 mm 12.4° 993.5 hPa 2.8 m/s 0.0 mm 13.2° 996.4 hPa 3.2 m/s 0.0 mm 12.1° 991.6 hPa 3.0 m/s
21:00 10.7° 993.5 hPa 2.4 m/s 0.0 mm 10.4° 988.4 hPa 3.4 m/s 62.4 mm 11.0° 993.4 hPa 1.1 m/s 0.3 mm 11.6° 995.9 hPa 2.3 m/s 0.0 mm 10.0° 991.5 hPa 3.2 m/s
 04:17     22:23    Daglengte: 18:06 Zaterdag 28 Mei
00:00 7.6° 992.7 hPa 2.3 m/s 0.0 mm 7.3° 987.8 hPa 2.6 m/s 62.7 mm 8.7° 993.2 hPa 0.8 m/s 0.1 mm 8.2° 991.6 hPa 2.8 m/s
03:00 7.0° 992.7 hPa 1.5 m/s 0.0 mm 7.0° 987.6 hPa 2.4 m/s 62.8 mm 8.3° 993.2 hPa 0.9 m/s 0.0 mm 7.3° 991.6 hPa 2.4 m/s
06:00 7.3° 993.1 hPa 1.1 m/s 0.0 mm 7.2° 987.3 hPa 1.5 m/s 64.1 mm 8.9° 993.6 hPa 1.1 m/s 0.0 mm 7.0° 991.8 hPa 1.8 m/s
09:00 9.7° 993.7 hPa 1.4 m/s 7.7 mm 9.7° 987.9 hPa 2.4 m/s 67.5 mm 11.7° 994.2 hPa 1.5 m/s 0.3 mm 10.1° 992.6 hPa 2.1 m/s
12:00 11.9° 994.9 hPa 2.1 m/s 23.1 mm 11.7° 989.1 hPa 4.2 m/s 67.5 mm 13.2° 995.5 hPa 1.8 m/s 0.9 mm 12.0° 993.2 hPa 3.1 m/s
15:00 12.9° 995.9 hPa 3.1 m/s 23.2 mm 11.9° 990.4 hPa 5.5 m/s 68.4 mm 14.7° 996.5 hPa 1.6 m/s 0.6 mm 10.1° 994.6 hPa 3.6 m/s
18:00 12.9° 996.7 hPa 3.4 m/s 8.1 mm 10.6° 991.9 hPa 5.4 m/s 69.2 mm 14.2° 997.2 hPa 2.1 m/s 0.7 mm 9.4° 995.7 hPa 2.5 m/s
21:00 11.1° 997.4 hPa 1.5 m/s 0.0 mm 8.6° 992.2 hPa 3.2 m/s 72.3 mm 13.7° 997.9 hPa 1.3 m/s 0.1 mm 8.1° 995.9 hPa 1.9 m/s
 04:15     22:25    Daglengte: 18:10 Zondag 29 Mei
00:00 8.6° 997.7 hPa 1.0 m/s 0.0 mm 8.3° 992.0 hPa 1.1 m/s 78.7 mm 10.0° 998.3 hPa 1.1 m/s 0.0 mm 7.8° 996.0 hPa 1.4 m/s
03:00 9.2° 997.4 hPa 2.1 m/s 0.0 mm 8.4° 992.4 hPa 2.7 m/s 90.2 mm 9.3° 998.7 hPa 1.9 m/s 0.0 mm 7.6° 996.1 hPa 1.0 m/s
06:00 8.3° 992.8 hPa 3.2 m/s 95.7 mm 8.3° 992.8 hPa 3.2 m/s 95.7 mm 7.5° 996.7 hPa 1.3 m/s
09:00 10.2° 994.2 hPa 3.8 m/s 96.0 mm 10.2° 994.2 hPa 3.8 m/s 96.0 mm 7.7° 998.5 hPa 2.6 m/s
12:00 8.2° 1000.7 hPa 2.5 m/s 23.2 mm 8.2° 1000.7 hPa 2.5 m/s 23.2 mm
15:00 9.8° 1002.8 hPa 2.2 m/s 23.4 mm 9.8° 1002.8 hPa 2.2 m/s 23.4 mm
18:00 10.6° 1004.3 hPa 2.0 m/s 23.8 mm 10.6° 1004.3 hPa 2.0 m/s 23.8 mm
21:00 9.2° 1005.5 hPa 3.5 m/s 23.9 mm 9.2° 1005.5 hPa 3.5 m/s 23.9 mm
 04:13     22:27    Daglengte: 18:14 Maandag 30 Mei
00:00 7.5° 1007.3 hPa 3.4 m/s 23.9 mm 7.5° 1007.3 hPa 3.4 m/s 23.9 mm
03:00 6.1° 1008.4 hPa 3.2 m/s 23.9 mm 6.1° 1008.4 hPa 3.2 m/s 23.9 mm
06:00 5.8° 1009.5 hPa 2.3 m/s 23.9 mm 5.8° 1009.5 hPa 2.3 m/s 23.9 mm
09:00 9.7° 1010.9 hPa 3.9 m/s 24.0 mm 9.7° 1010.9 hPa 3.9 m/s 24.0 mm
12:00 12.0° 1012.5 hPa 5.0 m/s 24.0 mm 12.0° 1012.5 hPa 5.0 m/s 24.0 mm
15:00 13.7° 1013.4 hPa 4.4 m/s 24.1 mm 13.7° 1013.4 hPa 4.4 m/s 24.1 mm
18:00 13.0° 1014.8 hPa 3.8 m/s 24.1 mm 13.0° 1014.8 hPa 3.8 m/s 24.1 mm
21:00 10.1° 1016.2 hPa 2.5 m/s 24.1 mm 10.1° 1016.2 hPa 2.5 m/s 24.1 mm
 04:12     22:29    Daglengte: 18:17 Dinsdag 31 Mei
00:00 7.1° 1017.5 hPa 1.5 m/s 24.1 mm 7.1° 1017.5 hPa 1.5 m/s 24.1 mm
03:00 7.6° 1018.4 hPa 1.6 m/s 24.1 mm 7.6° 1018.4 hPa 1.6 m/s 24.1 mm
06:00 8.5° 1018.8 hPa 2.0 m/s 24.1 mm 8.5° 1018.8 hPa 2.0 m/s 24.1 mm
09:00 12.8° 1019.0 hPa 3.4 m/s 24.1 mm 12.8° 1019.0 hPa 3.4 m/s 24.1 mm
12:00 14.3° 1018.7 hPa 4.1 m/s 24.1 mm 14.3° 1018.7 hPa 4.1 m/s 24.1 mm
15:00 14.6° 1017.8 hPa 4.1 m/s 24.1 mm 14.6° 1017.8 hPa 4.1 m/s 24.1 mm
18:00 15.6° 1015.5 hPa 2.4 m/s 24.1 mm 15.6° 1015.5 hPa 2.4 m/s 24.1 mm
21:00 12.9° 1013.8 hPa 3.2 m/s 24.1 mm 12.9° 1013.8 hPa 3.2 m/s 24.1 mm
 04:10     22:31    Daglengte: 18:21 Woensdag 01 Jun
00:00 10.7° 1011.9 hPa 2.8 m/s 24.1 mm 10.7° 1011.9 hPa 2.8 m/s 24.1 mm
03:00 9.7° 1009.5 hPa 3.8 m/s 24.6 mm 9.7° 1009.5 hPa 3.8 m/s 24.6 mm
06:00 9.5° 1006.9 hPa 6.0 m/s 26.3 mm 9.5° 1006.9 hPa 6.0 m/s 26.3 mm
09:00 9.3° 1005.1 hPa 6.7 m/s 29.7 mm 9.3° 1005.1 hPa 6.7 m/s 29.7 mm
12:00 9.8° 1004.7 hPa 7.3 m/s 32.9 mm 9.8° 1004.7 hPa 7.3 m/s 32.9 mm
15:00 10.8° 1005.3 hPa 8.3 m/s 34.3 mm 10.8° 1005.3 hPa 8.3 m/s 34.3 mm
18:00 11.1° 1006.7 hPa 7.7 m/s 34.9 mm 11.1° 1006.7 hPa 7.7 m/s 34.9 mm
21:00 10.5° 1007.4 hPa 7.6 m/s 35.1 mm 10.5° 1007.4 hPa 7.6 m/s 35.1 mm
 04:09     22:32    Daglengte: 18:23 Donderdag 02 Jun
00:00 10.0° 1007.7 hPa 7.0 m/s 35.1 mm 10.0° 1007.7 hPa 7.0 m/s 35.1 mm
03:00 9.6° 1007.4 hPa 6.5 m/s 35.2 mm 9.6° 1007.4 hPa 6.5 m/s 35.2 mm
06:00 10.9° 1007.4 hPa 6.1 m/s 35.2 mm 10.9° 1007.4 hPa 6.1 m/s 35.2 mm
09:00 12.0° 1008.2 hPa 5.8 m/s 35.3 mm 12.0° 1008.2 hPa 5.8 m/s 35.3 mm
15:00 13.9° 1011.6 hPa 6.7 m/s 35.5 mm 13.9° 1011.6 hPa 6.7 m/s 35.5 mm
21:00 11.4° 1012.5 hPa 4.8 m/s 35.9 mm 11.4° 1012.5 hPa 4.8 m/s 35.9 mm
 04:08     22:34    Daglengte: 18:26 Vrijdag 03 Jun
03:00 10.2° 1013.2 hPa 5.0 m/s 35.9 mm 10.2° 1013.2 hPa 5.0 m/s 35.9 mm
09:00 12.8° 1013.8 hPa 4.4 m/s 35.9 mm 12.8° 1013.8 hPa 4.4 m/s 35.9 mm
15:00 13.4° 1015.1 hPa 3.8 m/s 36.7 mm 13.4° 1015.1 hPa 3.8 m/s 36.7 mm
21:00 12.2° 1015.8 hPa 2.6 m/s 37.2 mm 12.2° 1015.8 hPa 2.6 m/s 37.2 mm
 04:06     22:36    Daglengte: 18:30 Zaterdag 04 Jun
03:00 8.1° 1018.1 hPa 2.8 m/s 37.2 mm 8.1° 1018.1 hPa 2.8 m/s 37.2 mm
09:00 14.7° 1019.3 hPa 3.2 m/s 37.2 mm 14.7° 1019.3 hPa 3.2 m/s 37.2 mm
15:00 17.0° 1019.9 hPa 2.7 m/s 37.2 mm 17.0° 1019.9 hPa 2.7 m/s 37.2 mm
21:00 16.2° 1020.9 hPa 0.8 m/s 37.2 mm 16.2° 1020.9 hPa 0.8 m/s 37.2 mm
 04:05     22:37    Daglengte: 18:32 Zondag 05 Jun
03:00 10.6° 1015.0 hPa 0.5 m/s 0.7 mm
09:00 13.0° 1014.9 hPa 0.7 m/s 0.8 mm
15:00 15.6° 1014.7 hPa 0.6 m/s 0.3 mm
21:00 13.7° 1014.1 hPa 0.4 m/s 0.3 mm
 04:04     22:39    Daglengte: 18:35 Maandag 06 Jun
03:00 10.7° 1014.3 hPa 0.7 m/s 0.3 mm
09:00 13.4° 1013.7 hPa 0.5 m/s 1.2 mm
15:00 16.0° 1013.3 hPa 1.8 m/s 1.1 mm
21:00 14.2° 1012.8 hPa 0.7 m/s 0.7 mm
 04:03     22:40    Daglengte: 18:37 Dinsdag 07 Jun
03:00 11.0° 1012.8 hPa 0.9 m/s 0.9 mm
09:00 13.7° 1012.3 hPa 0.7 m/s 0.6 mm
15:00 16.4° 1011.6 hPa 1.0 m/s 0.3 mm
21:00 14.3° 1011.1 hPa 0.2 m/s 0.6 mm
 04:02     22:41    Daglengte: 18:39 Woensdag 08 Jun
03:00 11.2° 1011.6 hPa 0.4 m/s 0.3 mm
09:00 13.6° 1011.5 hPa 0.6 m/s 0.1 mm
15:00 15.9° 1011.2 hPa 1.6 m/s 0.6 mm
21:00 14.2° 1011.0 hPa 1.3 m/s 0.6 mm
 04:01     22:43    Daglengte: 18:42 Donderdag 09 Jun
03:00 11.6° 1011.2 hPa 0.5 m/s 0.4 mm
09:00 13.7° 1011.0 hPa 1.4 m/s 0.8 mm
15:00 16.0° 1010.8 hPa 1.8 m/s 0.7 mm
21:00 14.4° 1010.5 hPa 0.8 m/s 2.0 mm